Change the Weather History Date:

Thursday, March 7, 2013

  Actual Average Record
Temperature  
Mean Temperature 48 °F -  
Max Temperature 64 °F 67 °F 91 °F (2002)
Min Temperature 33 °F 42 °F 25 °F (2015)
Degree Days  
Heating Degree Days 16    
Moisture  
Dew Point 33 °F    
Average Humidity 60    
Maximum Humidity 96    
Minimum Humidity 27    
Precipitation  
Precipitation 0.00 in - - ()
Sea Level Pressure  
Sea Level Pressure 30.28 in    
Wind  
Wind Speed 3 mph (ESE)    
Max Wind Speed 9 mph    
Max Gust Speed -    
Visibility 10 miles    
Events      
Averages and records for this station are not official NWS values.
T = Trace of Precipitation, MM = Missing Value Source: NWS Daily Summary

Daily Weather History Graph

Daily Weather History Graph

Search for Another Location

Airport or City:

Trip Planner

Search our weather history database for the weather conditions in past years. The results will help you decide how hot, cold, wet, or windy it might be!

Date:

Astronomy

Mar. 07, 2013 Rise Set
Actual Time 6:32 AM CST 6:15 PM CST
Civil Twilight 6:07 AM CST 6:39 PM CST
Nautical Twilight 5:39 AM CST 7:07 PM CST
Astronomical Twilight 5:11 AM CST 7:35 PM CST
Moon 3:19 AM CST (3/7) 2:15 PM CST (3/7)
Length of Visible Light 12h 31m
Length of Day
11h 42m
Waning Crescent, 20% of the Moon is Illuminated
Mar 7
Waning Crescent
Mar 11
New
Mar 19
First Quarter
Mar 27
Full
Apr 2
Last Quarter

Hourly Weather History & Observations

Time (CST) Temp. Windchill Dew Point Humidity Pressure Visibility Wind Dir Wind Speed Gust Speed Precip Events Conditions
12:15 AM 44.6 °F 40.7 °F 32.2 °F 62% 30.29 in 10.0 mi East 6.9 mph - N/A   Clear
12:35 AM 44.1 °F 41.5 °F 32.0 °F 63% 30.29 in 10.0 mi East 4.6 mph - N/A   Clear
12:55 AM 43.7 °F 42.1 °F 32.0 °F 63% 30.29 in 10.0 mi East 3.5 mph - N/A   Clear
1:15 AM 42.6 °F 39.0 °F 31.8 °F 66% 30.28 in 10.0 mi ESE 5.8 mph - N/A   Clear
1:35 AM 42.1 °F 40.2 °F 31.6 °F 67% 30.28 in 10.0 mi East 3.5 mph - N/A   Clear
1:55 AM 42.1 °F 40.2 °F 31.6 °F 67% 30.29 in 10.0 mi ESE 3.5 mph - N/A   Clear
2:15 AM 41.7 °F 39.8 °F 31.8 °F 68% 30.28 in 10.0 mi ESE 3.5 mph - N/A   Clear
2:35 AM 40.5 °F - 31.5 °F 70% 30.27 in 10.0 mi Calm Calm - N/A   Clear
2:55 AM 40.1 °F - 31.1 °F 70% 30.27 in 10.0 mi Calm Calm - N/A   Clear
3:15 AM 39.7 °F 37.6 °F 31.1 °F 71% 30.27 in 10.0 mi ESE 3.5 mph - N/A   Clear
3:35 AM 39.6 °F - 30.9 °F 71% 30.27 in 10.0 mi Calm Calm - N/A   Clear
3:55 AM 38.7 °F 34.3 °F 31.1 °F 74% 30.27 in 10.0 mi ESE 5.8 mph - N/A   Clear
4:15 AM 38.3 °F 33.9 °F 31.5 °F 76% 30.27 in 10.0 mi East 5.8 mph - N/A   Clear
4:35 AM 37.4 °F 34.9 °F 31.1 °F 78% 30.28 in 10.0 mi East 3.5 mph - N/A   Clear
4:55 AM 36.9 °F - 30.9 °F 79% 30.28 in 10.0 mi Calm Calm - N/A   Clear
5:15 AM 37.4 °F - 31.1 °F 78% 30.29 in 10.0 mi Calm Calm - N/A   Clear
5:35 AM 35.8 °F - 31.3 °F 84% 30.30 in 10.0 mi Calm Calm - N/A   Clear
5:55 AM 35.1 °F - 31.3 °F 86% 30.30 in 10.0 mi Calm Calm - N/A   Clear
6:15 AM 36.5 °F - 31.1 °F 81% 30.31 in 10.0 mi Calm Calm - N/A   Clear
6:35 AM 34.2 °F - 31.5 °F 90% 30.32 in 10.0 mi Calm Calm - N/A   Clear
6:55 AM 33.1 °F - 32.0 °F 96% 30.33 in 10.0 mi Calm Calm - N/A   Clear
7:15 AM 34.3 °F - 32.0 °F 91% 30.34 in 10.0 mi Calm Calm - N/A   Clear
7:35 AM 39.0 °F - 32.9 °F 79% 30.34 in 10.0 mi Calm Calm - N/A   Clear
7:55 AM 41.0 °F 39.0 °F 32.9 °F 73% 30.36 in 10.0 mi ESE 3.5 mph - N/A   Clear
8:15 AM 42.8 °F 39.3 °F 33.1 °F 69% 30.36 in 10.0 mi ESE 5.8 mph - N/A   Clear
8:35 AM 44.2 °F 40.3 °F 33.1 °F 65% 30.36 in 10.0 mi ESE 6.9 mph - N/A   Clear
8:55 AM 45.5 °F 41.8 °F 33.3 °F 62% 30.36 in 10.0 mi SE 6.9 mph - N/A   Clear
9:15 AM 46.9 °F - 33.4 °F 59% 30.36 in 10.0 mi SE 8.1 mph - N/A   Clear
9:35 AM 49.1 °F - 32.7 °F 53% 30.36 in 10.0 mi ESE 5.8 mph - N/A   Clear
9:55 AM 50.0 °F - 33.3 °F 53% 30.35 in 10.0 mi SE 5.8 mph - N/A   Clear
10:15 AM 51.1 °F - 32.4 °F 49% 30.36 in 10.0 mi ESE 6.9 mph - N/A   Clear
10:35 AM 52.9 °F - 32.7 °F 46% 30.35 in 10.0 mi ESE 9.2 mph - N/A   Clear
10:55 AM 54.3 °F - 33.1 °F 45% 30.35 in 10.0 mi South 5.8 mph - N/A   Clear
11:15 AM 55.8 °F - 32.9 °F 42% 30.35 in 10.0 mi ESE 4.6 mph - N/A   Clear
11:35 AM 57.4 °F - 34.3 °F 42% 30.35 in 10.0 mi SSE 3.5 mph - N/A   Clear
11:55 AM 59.0 °F - 34.0 °F 39% 30.33 in 10.0 mi Calm Calm - N/A   Clear
12:15 PM 58.8 °F - 33.1 °F 38% 30.32 in 10.0 mi SSE 4.6 mph - N/A   Clear
12:35 PM 60.4 °F - 33.8 °F 37% 30.32 in 10.0 mi SSE 5.8 mph - N/A   Clear
12:55 PM 61.9 °F - 32.5 °F 33% 30.30 in 10.0 mi ESE 3.5 mph - N/A   Clear
1:15 PM 60.4 °F - 32.7 °F 35% 30.29 in 10.0 mi ESE 3.5 mph - N/A   Clear
1:35 PM 60.8 °F - 29.5 °F 31% 30.28 in 10.0 mi Calm Calm - N/A   Clear
1:55 PM 60.8 °F - 30.0 °F 31% 30.27 in 10.0 mi Calm Calm - N/A   Clear
2:15 PM 63.0 °F - 30.7 °F 30% 30.26 in 10.0 mi ESE 4.6 mph - N/A   Clear
2:35 PM 64.4 °F - 29.8 °F 27% 30.26 in 10.0 mi South 4.6 mph - N/A   Clear
2:55 PM 64.9 °F - 29.8 °F 27% 30.26 in 10.0 mi Calm Calm - N/A   Clear
3:15 PM 64.0 °F - 29.8 °F 28% 30.24 in 10.0 mi SE 3.5 mph - N/A   Clear
3:35 PM 62.8 °F - 31.8 °F 31% 30.24 in 10.0 mi South 5.8 mph - N/A   Clear
3:55 PM 62.6 °F - 31.3 °F 31% 30.24 in 10.0 mi SSE 3.5 mph - N/A   Clear
4:15 PM 62.6 °F - 30.7 °F 30% 30.23 in 10.0 mi South 3.5 mph - N/A   Mostly Cloudy
4:35 PM 63.0 °F - 29.7 °F 29% 30.23 in 10.0 mi Calm Calm - N/A   Scattered Clouds
4:55 PM 62.8 °F - 30.4 °F 30% 30.23 in 10.0 mi Calm Calm - N/A   Clear
5:15 PM 61.9 °F - 31.8 °F 32% 30.23 in 10.0 mi East 3.5 mph - N/A   Clear
5:35 PM 60.1 °F - 32.0 °F 35% 30.22 in 10.0 mi Calm Calm - N/A   Clear
5:55 PM 60.3 °F - 32.0 °F 34% 30.22 in 10.0 mi Calm Calm - N/A   Clear
7:35 PM 53.8 °F - 36.1 °F 51% 30.23 in 10.0 mi East 5.8 mph - N/A   Clear
7:55 PM 53.4 °F - 37.4 °F 55% 30.24 in 10.0 mi ESE 4.6 mph - N/A   Clear
8:15 PM 53.1 °F - 37.2 °F 55% 30.24 in 10.0 mi East 4.6 mph - N/A   Clear
8:35 PM 50.4 °F - 37.9 °F 62% 30.24 in 10.0 mi Calm Calm - N/A   Clear
8:55 PM 46.8 °F - 38.1 °F 72% 30.24 in 10.0 mi Calm Calm - N/A   Clear
9:15 PM 46.8 °F - 37.2 °F 69% 30.24 in 10.0 mi Calm Calm - N/A   Clear
9:35 PM 45.0 °F - 38.5 °F 78% 30.25 in 10.0 mi Calm Calm - N/A   Clear
9:55 PM 43.7 °F - 40.5 °F 88% 30.25 in 10.0 mi Calm Calm - N/A   Clear
10:15 PM 43.5 °F - 38.7 °F 83% 30.26 in 10.0 mi Calm Calm - N/A   Clear
10:35 PM 43.3 °F - 38.8 °F 84% 30.25 in 10.0 mi Calm Calm - N/A   Clear
10:55 PM 42.3 °F - 37.9 °F 85% 30.25 in 10.0 mi Calm Calm - N/A   Clear
11:15 PM 41.4 °F - 38.1 °F 88% 30.25 in 10.0 mi Calm Calm - N/A   Clear
11:35 PM 40.6 °F - 37.6 °F 89% 30.25 in 10.0 mi Calm Calm - N/A   Clear
11:55 PM 40.1 °F - 37.8 °F 91% 30.24 in 10.0 mi Calm Calm - N/A   Clear